Regional Weather Roundup
Issued by NWS

Home | Current Version | Previous Version | Graphics & Text | Print | Product List | Glossary On
Versions: 1 2 3 4 5 6 7 8 9 10 11 12 13 14 15 16 17 18 19 20 21 22 23 24 25 26 27 28 29 30 31 32 33 34 35 36 37 38 39 40 41 42 43 44 45 46 47 48 49 50
000
ASUS43 KLSX 281807
RWRMO

WEATHER SUMMARY FOR MISSOURI
NATIONAL WEATHER SERVICE SPRINGFIELD MO
100 PM CDT THU JUL 28 2016

NOTE: "FAIR" INDICATES FEW OR NO CLOUDS BELOW 12,000 FEET WITH NO
       SIGNIFICANT WEATHER AND/OR OBSTRUCTIONS TO VISIBILITY.
       CURRENT SKY AND/OR WEATHER CONDITIONS ARE NOT AVAILABLE FOR
       CHILLICOTHE AND FARMINGTON.

MOZ001>031-035>038-043-044-053-054-281900-
...NORTHERN AND WESTERN MISSOURI...

CITY           SKY/WX    TMP DP  RH WIND       PRES   REMARKS
KANSAS CTY INT MOSUNNY   87  69  54 N8        29.97F HX  91
6HR MIN TEMP:  72; 6HR MAX TEMP:  88;

KANSAS C DTWN  SUNNY     89  67  47 N10       29.94F HX  92
6HR MIN TEMP:  75; 6HR MAX TEMP:  90;

LEE`S SUMMIT   SUNNY     87  67  51 N10       29.96F HX  90
6HR MIN TEMP:  74; 6HR MAX TEMP:  88;

ST JOSEPH      PTSUNNY   85  69  58 N9        29.98R
6HR MIN TEMP:  71; 6HR MAX TEMP:  85;

CHILLICOTHE      N/A     88  71  57 VRB6      29.96S HX  94
6HR MIN TEMP:  72; 6HR MAX TEMP:  89;

KIRKSVILLE     PTSUNNY   81  71  71 CALM      29.95S THUNDER
6HR MIN TEMP:  69; 6HR MAX TEMP:  88; 6HR PCP:  0.10;


$$
MOZ066>068-077>081-088>096-101>105-281900-
...SOUTHWEST MISSOURI...

CITY           SKY/WX    TMP DP  RH WIND       PRES   REMARKS
SPRINGFIELD    CLOUDY    89  70  53 W7        29.96F HX  94
6HR MIN TEMP:  71; 6HR MAX TEMP:  89;

JOPLIN         CLOUDY    86  77  74 VRB6      29.96F HX  97
6HR MIN TEMP:  75; 6HR MAX TEMP:  88; 6HR PCP: TRACE;

BRANSON        MOSUNNY   86  73  66 NW6       30.00S HX  93

$$
MOZ032>034-039>042-045>050-055>058-069>072-281900-
...CENTRAL MISSOURI...

CITY           SKY/WX    TMP DP  RH WIND       PRES   REMARKS
COLUMBIA       CLOUDY    85  73  67 NW6       29.94S HX  91
6HR MIN TEMP:  74; 6HR MAX TEMP:  87;

JEFFERSON CITY CLOUDY    86  71  60 NW7       29.92S HX  91
6HR MIN TEMP:  73; 6HR MAX TEMP:  88;

ROLLA          CLOUDY    84  70  62 W7        29.95R
6HR MIN TEMP:  70; 6HR MAX TEMP:  87;

SEDALIA        MOSUNNY   87  76  69 N5        29.95F HX  97
6HR MIN TEMP:  75; 6HR MAX TEMP:  88;

OSAGE BEACH    PTSUNNY   86  73  65 VRB3      29.94F HX  93

$$
MOZ051-052-059>065-281900-
...EAST CENTRAL MISSOURI...

CITY           SKY/WX    TMP DP  RH WIND       PRES   REMARKS
ST LOUIS INTL  MOSUNNY   89  73  59 VRB7      29.91R HX  97
6HR MIN TEMP:  77; 6HR MAX TEMP:  90;

SPIRIT OF STL  MOSUNNY   89  74  60 NW8       29.89S HX  98
6HR MIN TEMP:  75; 6HR MAX TEMP:  90;

ST CHARLES     PTSUNNY   86  74  67 W8        29.89S HX  94
6HR MIN TEMP:  74; 6HR MAX TEMP:  86;


$$
MOZ072>076-082>087-097>100-106>115-281900-
...SOUTH CENTRAL AND SOUTHEAST MISSOURI...

CITY           SKY/WX    TMP DP  RH WIND       PRES   REMARKS
CAPE GIRARDEAU PTSUNNY   85  75  72 S5        29.90F HX  93
6HR MIN TEMP:  74; 6HR MAX TEMP:  86;

FARMINGTON     CLOUDY    85  74  69 NW5       29.93F HX  92
6HR MIN TEMP:  72; 6HR MAX TEMP:  87;

POPLAR BLUFF   CLOUDY    86  76  71 S8        29.91F HX  96
6HR MIN TEMP:  74; 6HR MAX TEMP:  86;

WEST PLAINS    MOSUNNY   89  72  56 NW8       29.99S HX  96
6HR MIN TEMP:  71; 6HR MAX TEMP:  89;


$$



USA.gov is the U.S. government's official web portal to all federal, state and local government web resources and services.